Regional Weather Roundup
Issued by NWS

Home | Current Version | Previous Version | Graphics & Text | Print | Product List | Glossary On
Versions: 1 2 3 4 5 6 7 8 9 10 11 12 13 14 15 16 17 18 19 20 21 22 23 24 25 26 27
000
ASUS45 KBOI 251410
RWRID

IDAHO REGIONAL WEATHER ROUNDUP
NATIONAL WEATHER SERVICE BOISE ID
800 AM MDT MON SEP 25 2017

NOTE: "FAIR" INDICATES FEW OR NO CLOUDS BELOW 12000 FEET
WITH NO SIGNIFICANT WEATHER AND/OR OBSTRUCTIONS TO VISIBILITY

IDZ012-014-251500-
SOUTHWEST IDAHO


CITY           SKY/WX    TMP DP  RH WIND       PRES   REMARKS
BOISE          CLEAR     41  33  73 S8        30.10R
CALDWELL       CLEAR     41  36  82 CALM      30.11R
MOUNTAIN HOME  CLEAR    N/A N/A N/A E6        30.12R
$$

IDZ016-017-251500-
SOUTHCENTRAL IDAHO


CITY           SKY/WX    TMP DP  RH WIND       PRES   REMARKS
BURLEY         CLEAR     36  30  79 CALM      30.12R
JEROME         CLEAR     35  32  88 E3        30.12R
TWIN FALLS     PTCLDY    41  33  73 S9        30.12R
$$

IDZ019>023-251500-
SOUTHEAST IDAHO


CITY           SKY/WX    TMP DP  RH WIND       PRES   REMARKS
IDAHO FALLS    PTCLDY    35  32  88 CALM      30.15R
POCATELLO      PTCLDY    36  34  92 S8        30.14R WCI  30
REXBURG        CLEAR     32  30  92 CALM      30.14R
$$

IDZ006-010-011-018-031-032-251500-
CENTRAL IDAHO MOUNTAINS


CITY           SKY/WX    TMP DP  RH WIND       PRES   REMARKS
MCCALL         CLEAR     30  29  96 CALM      30.12R
HAILEY         MOCLDY    36  28  75 NW10      30.15R WCI  28
STANLEY          N/A     22  19  89 CALM      30.19R
SALMON         CLOUDY    42  36  79 CALM      30.15R
CHALLIS        CLOUDY    34  30  85 CALM      30.16S
$$

IDZ002-004-006-007-026-251500-
NORTHERN IDAHO


CITY           SKY/WX    TMP DP  RH WIND       PRES   REMARKS
LEWISTON       CLOUDY    53  44  71 E9        30.08S
LOWELL           N/A     45  42  89 CALM      30.16S
COEUR D`ALENE  MOCLDY    51  46  83 S8        30.08S
MULLAN PASS    CLOUDY    39  35  86 NW5       30.11S
$$




USA.gov is the U.S. government's official web portal to all federal, state and local government web resources and services.